Surat Thani, Thailand

5:08 AM ICT on February 10, 2016 (GMT +0700)
Surat Thani

Weather History for VTSB - July, 2013

Change the Weather History Date:

Monday, July 1, 2013

  Actual Average Record
Temperature  
Mean Temperature 84 °F -  
Max Temperature 94 °F 91 °F - ()
Min Temperature 74 °F 74 °F - ()
Cooling Degree Days 19    
Growing Degree Days 34 (Base 50)    
Moisture  
Dew Point 76 °F    
Average Humidity 81    
Maximum Humidity 100    
Minimum Humidity 50    
Precipitation  
Precipitation 0.00 in 0.19 in - ()
Sea Level Pressure  
Sea Level Pressure 29.74 in    
Wind  
Wind Speed 4 mph ()    
Max Wind Speed 13 mph    
Max Gust Speed -    
Visibility 5.3 miles    
Events      
T = Trace of Precipitation, MM = Missing Value Source: Averaged Metar Reports

Daily Weather History Graph

Daily Weather History Graph

Search for Another Location

Airport or City:

Trip Planner

Search our weather history database for the weather conditions in past years. The results will help you decide how hot, cold, wet, or windy it might be!

Date:

Astronomy

Jul. 01, 2013 Rise Set
Actual Time 6:07 AM ICT 6:46 PM ICT
Civil Twilight 5:44 AM ICT 7:09 PM ICT
Nautical Twilight 5:18 AM ICT 7:36 PM ICT
Astronomical Twilight 4:50 AM ICT 8:03 PM ICT
Moon 12:35 AM ICT (7/1) 1:10 PM ICT (7/1)
Length of Visible Light 13h 24m
Length of Day
12h 38m
Last Quarter, 40% of the Moon is Illuminated
Jul 1
Last Quarter
Jul 8
New
Jul 16
First Quarter
Jul 23
Full
Jul 30
Last Quarter

Hourly Weather History & Observations

Time (ICT) Temp. Heat Index Dew Point Humidity Pressure Visibility Wind Dir Wind Speed Gust Speed Precip Events Conditions
12:00 AM 75.2 °F - 75.2 °F 100% 29.80 in 3.7 mi SSW 3.5 mph - N/A   Scattered Clouds
1:00 AM 75.2 °F - 75.2 °F 100% 29.77 in 3.7 mi Calm Calm - N/A   Scattered Clouds
2:00 AM 75.2 °F - 75.2 °F 100% 29.77 in 3.7 mi Calm Calm - N/A   Scattered Clouds
6:00 AM 75.2 °F - 75.2 °F 100% 29.74 in 3.7 mi Calm Calm - N/A   Scattered Clouds
7:00 AM 75 °F - 74 °F 95% 29.79 in 4 mi Calm Calm - -   Mist
7:00 AM 75.2 °F - 75.2 °F 100% 29.77 in 5.0 mi Calm Calm - N/A   Scattered Clouds
8:00 AM 77.0 °F - 77.0 °F 100% 29.77 in 6.2 mi West 2.3 mph - N/A   Scattered Clouds
9:00 AM 82.4 °F 92.4 °F 78.8 °F 89% 29.77 in 6.2 mi SSW 4.6 mph - N/A   Scattered Clouds
10:00 AM 84.2 °F 94.1 °F 77.0 °F 79% 29.77 in 6.2 mi SSW 4.6 mph - N/A   Mostly Cloudy
11:00 AM 89.6 °F 104.7 °F 78.8 °F 70% 29.74 in 6.2 mi SSW 8.1 mph - N/A   Scattered Clouds
12:00 PM 89.6 °F 99.8 °F 75.2 °F 62% 29.74 in 6.2 mi WSW 10.4 mph - N/A   Mostly Cloudy
1:00 PM 92 °F - 76 °F 50% 29.72 in 6 mi WSW 4.6 mph - -   Scattered Clouds
1:00 PM 89.6 °F 99.8 °F 75.2 °F 62% 29.71 in 6.2 mi West 12.7 mph - N/A   Mostly Cloudy
2:00 PM 86.0 °F 96.9 °F 77.0 °F 74% 29.68 in 6.2 mi WSW 11.5 mph - N/A   Mostly Cloudy
3:00 PM 87.8 °F 99.7 °F 77.0 °F 70% 29.68 in 6.2 mi SW 10.4 mph - N/A   Mostly Cloudy
4:00 PM 87.8 °F 97.6 °F 75.2 °F 66% 29.68 in 6.2 mi WSW 12.7 mph - N/A   Mostly Cloudy
5:00 PM 86.0 °F 95.1 °F 75.2 °F 70% 29.68 in 6.2 mi WSW 9.2 mph - N/A   Mostly Cloudy
6:00 PM 86.0 °F 96.9 °F 77.0 °F 74% 29.68 in 5.0 mi SW 8.1 mph - N/A   Mostly Cloudy
7:00 PM 84 °F - 72 °F 59% 29.73 in 6 mi WSW 3.5 mph - -   Partly Cloudy
7:00 PM 80.6 °F 86.2 °F 75.2 °F 84% 29.74 in 5.0 mi WSW 8.1 mph - N/A   Mostly Cloudy
8:00 PM 80.6 °F 86.2 °F 75.2 °F 84% 29.74 in 4.3 mi West 3.5 mph - N/A   Mostly Cloudy
9:00 PM 78.8 °F - 75.2 °F 89% 29.77 in 4.3 mi Calm Calm - N/A   Mostly Cloudy